Washington County, Wisconsin, United States
Lat: 43.37N, Lon: 88.22W
Wx Zone: WIZ059
Local Info
Past Weather Observations for Today

NOTE: This archive is for the closest National Weather Service station to Washington County. Information may differ from the station used for current weather conditions.

Click here for Long-term Archive

Time Weather Temperature Dewpoint Humidity Pressure Winds Precip Visibility
09:55
Overcast
23°F / -5°C 19°F / -7°C 86% 30.15 in
(1021 mb)
SSE 3.5 mph
(SSE 6 kph)
- 10SM
09:35
Overcast
23°F / -5°C 19°F / -7°C 86% 30.15 in
(1021 mb)
Calm - 10SM
09:15
Overcast
23°F / -5°C 18°F / -8°C 80% 30.15 in
(1021 mb)
S 4.6 mph
(S 7 kph)
- 10SM
08:55
Overcast
21°F / -6°C 18°F / -8°C 86% 30.15 in
(1021 mb)
SW 3.5 mph
(SW 6 kph)
- 10SM
08:35
Overcast
21°F / -6°C 18°F / -8°C 86% 30.15 in
(1021 mb)
Calm - 7SM
08:15
Mostly Cloudy
19°F / -7°C 18°F / -8°C 93% 30.15 in
(1021 mb)
Calm - 7SM
07:55
Mostly Cloudy
19°F / -7°C 16°F / -9°C 86% 30.15 in
(1021 mb)
Calm - 7SM
07:35
Mostly Cloudy
Fog And Mist
18°F / -8°C 14°F / -10°C 86% 30.15 in
(1021 mb)
Calm - 5SM
07:15
Clear
Fog And Mist
18°F / -8°C 14°F / -10°C 86% 30.12 in
(1020 mb)
Calm - 5SM
06:55
Partly Cloudy
Fog And Mist
18°F / -8°C 14°F / -10°C 86% 30.15 in
(1021 mb)
Calm - 5SM
06:35
Overcast
18°F / -8°C 14°F / -10°C 86% 30.15 in
(1021 mb)
Calm - 7SM
06:15
Overcast
19°F / -7°C 16°F / -9°C 86% 30.15 in
(1021 mb)
SE 4.6 mph
(SE 7 kph)
- 7SM
05:55
Overcast
18°F / -8°C 14°F / -10°C 86% 30.15 in
(1021 mb)
SE 4.6 mph
(SE 7 kph)
- 7SM
05:35
Overcast
19°F / -7°C 14°F / -10°C 79% 30.15 in
(1021 mb)
NE 3.5 mph
(NE 6 kph)
- 10SM
05:15
Overcast
19°F / -7°C 14°F / -10°C 79% 30.15 in
(1021 mb)
Calm - 10SM
04:55
Overcast
19°F / -7°C 14°F / -10°C 79% 30.15 in
(1021 mb)
Calm - 10SM
04:35
Overcast
19°F / -7°C 16°F / -9°C 86% 30.15 in
(1021 mb)
NE 3.5 mph
(NE 6 kph)
- 10SM
04:15
Overcast
19°F / -7°C 16°F / -9°C 86% 30.15 in
(1021 mb)
NNW 3.5 mph
(NNW 6 kph)
- 10SM
03:55
Overcast
19°F / -7°C 14°F / -10°C 79% 30.15 in
(1021 mb)
Calm - 10SM
03:35
Overcast
19°F / -7°C 16°F / -9°C 86% 30.15 in
(1021 mb)
Calm - 10SM
03:15
Overcast
19°F / -7°C 16°F / -9°C 86% 30.15 in
(1021 mb)
Calm - 10SM
02:55
Overcast
19°F / -7°C 16°F / -9°C 86% 30.15 in
(1021 mb)
Calm - 10SM
02:35
Overcast
19°F / -7°C 14°F / -10°C 79% 30.15 in
(1021 mb)
Calm - 10SM
02:15
Overcast
19°F / -7°C 14°F / -10°C 79% 30.15 in
(1021 mb)
Calm - 10SM
01:55
Overcast
19°F / -7°C 14°F / -10°C 79% 30.18 in
(1022 mb)
Calm - 10SM
01:35
Overcast
19°F / -7°C 14°F / -10°C 79% 30.18 in
(1022 mb)
Calm - 10SM
01:15
Overcast
19°F / -7°C 16°F / -9°C 86% 30.15 in
(1021 mb)
Calm - 10SM
00:55
Overcast
19°F / -7°C 16°F / -9°C 86% 30.15 in
(1021 mb)
Calm - 10SM
00:35
Overcast
19°F / -7°C 16°F / -9°C 86% 30.18 in
(1022 mb)
SW 3.5 mph
(SW 6 kph)
- 10SM
00:15
Overcast
21°F / -6°C 16°F / -9°C 80% 30.18 in
(1022 mb)
SW 4.6 mph
(SW 7 kph)
- 10SM
Time Weather Temperature Dewpoint Humidity Pressure Winds Precip Visibility


Weather for websites

WeatherForYou.com, LLC is not responsible for any damages or problems caused by this service. Current weather conditions are obtained from the closest station including government and personal stations which may have varying degrees of accuracy. Weather forecasts are derived from the NOAA NDFD. Like all things, this site belongs to Jesus Christ... He just trusts me to maintain it. If you have any questions or comments email webmaster@weatherforyou.com

Copyright © 2014, WeatherForYou.com LLC. All rights reserved.